EDT,Max TemperatureF,Mean TemperatureF,Min TemperatureF,Max Dew PointF,MeanDew PointF,Min DewpointF,Max Humidity, Mean Humidity, Min Humidity, Max Sea Level PressureIn, Mean Sea Level PressureIn, Min Sea Level PressureIn, Max VisibilityMiles, Mean VisibilityMiles, Min VisibilityMiles, Max Wind SpeedMPH, Mean Wind SpeedMPH, Max Gust SpeedMPH,PrecipitationIn, CloudCover, Events, WindDirDegrees
2011-10-1,60,53,45,45,37,32,76,58,39,29.96,29.88,29.80,10,10,10,23,11,29,T,2,Rain,306
2011-10-2,61,52,42,39,34,29,89,61,32,30.05,29.98,29.93,10,10,10,24,10,31,0.00,2,,298
2011-10-3,66,55,43,45,38,33,80,59,37,30.17,30.08,30.00,10,10,10,20,9,26,T,2,Rain,292
2011-10-4,72,58,44,49,46,41,89,67,44,30.24,30.19,30.15,10,10,10,12,4,14,0.00,1,,324
2011-10-5,77,63,48,51,47,44,86,60,33,30.27,30.22,30.17,10,9,7,8,1,10,0.00,0,,19
2011-10-6,73,63,53,52,50,48,83,65,47,30.36,30.31,30.24,10,10,10,12,4,14,0.00,0,,52
2011-10-7,74,61,47,51,48,44,93,66,38,30.44,30.39,30.35,10,10,7,13,3,16,0.00,0,,60
2011-10-8,72,60,47,50,46,44,93,66,38,30.51,30.45,30.40,10,10,10,15,5,20,0.00,0,,49
2011-10-9,75,63,50,51,48,42,89,64,39,30.44,30.37,30.31,10,10,10,17,7,20,0.00,0,,42
2011-10-10,73,65,56,56,52,50,83,65,46,30.31,30.20,30.10,10,10,10,15,8,18,0.00,1,,45
2011-10-11,64,61,58,58,56,55,93,83,73,30.10,30.03,29.93,10,4,1,18,10,25,0.64,8,Rain,49
2011-10-12,70,66,61,65,62,59,100,91,81,29.93,29.84,29.77,10,6,2,14,3,29,1.97,8,Rain-Thunderstorm,67
2011-10-13,72,67,62,64,62,58,100,81,61,29.77,29.67,29.57,10,6,0,18,7,23,0.25,6,Fog-Rain,192
2011-10-14,72,62,51,60,49,38,97,63,29,29.83,29.66,29.56,10,9,6,26,11,38,0.03,4,Rain,254
2011-10-15,72,60,47,44,38,29,86,54,22,30.04,29.93,29.85,10,10,10,21,9,26,0.00,0,,257
2011-10-16,76,61,45,45,39,34,71,49,27,30.13,30.02,29.93,10,10,10,18,9,24,0.00,0,,235
2011-10-17,83,68,53,53,49,46,77,54,31,29.92,29.87,29.81,10,10,10,18,9,23,0.00,0,,225
2011-10-18,81,68,55,63,55,51,93,65,36,29.85,29.78,29.68,10,9,3,15,7,21,0.51,3,Rain,194
2011-10-19,65,58,51,63,57,45,93,85,77,29.63,29.43,29.29,10,6,1,31,12,41,0.18,8,Rain,106
2011-10-20,59,51,43,41,39,37,89,68,47,29.93,29.71,29.47,10,10,10,21,11,28,0.00,3,,244
2011-10-21,63,52,40,42,38,36,92,66,39,30.10,30.03,29.94,10,10,10,13,5,21,0.00,1,,275
2011-10-22,64,54,43,43,39,36,86,63,39,30.17,30.11,30.07,10,10,10,9,3,13,0.00,0,,27
2011-10-23,67,54,41,45,42,37,89,66,42,30.16,30.11,30.06,10,10,8,9,1,12,0.00,0,,177
2011-10-24,72,62,51,48,44,41,86,61,35,30.13,30.08,30.02,10,10,8,10,3,20,0.00,0,,251
2011-10-25,69,59,48,45,41,35,86,57,28,30.27,30.18,30.12,10,10,10,14,3,21,0.00,0,,227
2011-10-26,74,61,47,49,45,40,80,58,35,30.13,30.00,29.88,10,10,10,16,8,29,0.00,0,,223
2011-10-27,77,65,52,52,48,45,83,61,38,29.92,29.82,29.73,10,10,10,20,10,24,0.00,2,,240
2011-10-28,58,49,39,42,38,36,92,72,51,30.14,30.08,29.94,10,6,2,21,12,24,0.23,8,Rain,49
2011-10-29,54,44,33,39,34,26,92,65,38,30.13,29.99,29.94,10,9,2,21,8,30,0.47,6,Rain,356
2011-10-30,57,44,30,33,29,25,92,61,30,30.32,30.25,30.14,10,10,10,13,4,18,0.00,0,,95
2011-10-31,56,45,34,34,31,28,89,62,35,30.32,30.26,30.18,10,10,10,9,3,15,0.00,2,,63